This is the latest recevied weather packets stored in our database for station/object K6GMW. If no packets are shown the sender has not sent any weather packets the latest 10 day(s).
| Time | Temp. | Humidity | Pressure | Rain* | Wind** | Luminosity | Snow |
|---|---|---|---|---|---|---|---|
| 1788625754 | 33.33° C | 54% | 1015.7 hPa | 0 mm | - | 178 W/m² | - |
| 1788625454 | 33.33° C | 55% | 1015.6 hPa | 0 mm | - | 270 W/m² | - |
| 1788625149 | 33.33° C | 54% | 1015.6 hPa | 0 mm | - | 399 W/m² | - |
| 1788624848 | 33.89° C | 53% | 1015.8 hPa | 0 mm | - | 189 W/m² | - |
| 1788624547 | 34.44° C | 52% | 1015.9 hPa | 0 mm | - | 687 W/m² | - |
| 1788624241 | 33.89° C | 54% | 1015.9 hPa | 0 mm | - | 777 W/m² | - |
| 1788623941 | 33.33° C | 54% | 1015.8 hPa | 0 mm | - | 757 W/m² | - |
| 1788623641 | 33.33° C | 54% | 1015.9 hPa | 0 mm | - | 743 W/m² | - |
| 1788623339 | 33.33° C | 54% | 1016.1 hPa | 0 mm | - | 723 W/m² | - |
| 1788623035 | 33.33° C | 54% | 1015.9 hPa | 0 mm | - | 707 W/m² | - |
| 1788622730 | 34.44° C | 52% | 1016 hPa | 0 mm | - | 692 W/m² | - |
| 1788622439 | 33.89° C | 54% | 1016.1 hPa | 0 mm | - | 680 W/m² | - |
| 1788622126 | 32.78° C | 57% | 1016.1 hPa | 0 mm | - | 667 W/m² | - |
| 1788621825 | 32.78° C | 56% | 1016.1 hPa | 0 mm | - | 651 W/m² | - |
| 1788621521 | 32.78° C | 56% | 1016 hPa | 0 mm | - | 638 W/m² | - |
| 1788621217 | 32.78° C | 57% | 1015.9 hPa | 0 mm | - | 622 W/m² | - |
| 1788620916 | 32.22° C | 59% | 1015.8 hPa | 0 mm | - | 609 W/m² | - |
| 1788620611 | 32.22° C | 59% | 1015.7 hPa | 0 mm | - | 588 W/m² | - |
| 1788620309 | 31.67° C | 60% | 1015.9 hPa | 0 mm | - | 577 W/m² | - |
| 1788620008 | 31.67° C | 62% | 1015.8 hPa | 0 mm | - | 556 W/m² | - |
| 1788619707 | 31.67° C | 64% | 1015.9 hPa | 0 mm | - | 537 W/m² | - |
| 1788619403 | 31.11° C | 64% | 1015.8 hPa | 0 mm | - | 519 W/m² | - |
| 1788619101 | 30.56° C | 66% | 1015.7 hPa | 0 mm | - | 505 W/m² | - |
| 1788618796 | 30.56° C | 66% | 1015.8 hPa | 0 mm | - | 485 W/m² | - |
| 1788618495 | 30° C | 66% | 1015.7 hPa | 0 mm | - | 464 W/m² | - |
* Rain latest hour (hover to see other rain measurements)
** Current wind speed in m/s (hover to see current wind gust speed)